Location: Berg
(47.2344°N, 9.5296°E)
Time: 12:01:01
(UTC+00:00)

Cosmos 2058 Rocket - Pass Details

Date: 24 January 2021
Orbit: 611 x 639 km, 82.5° (Epoch: 06 March)

Event Time Altitude Azimuth Distance (km) Brightness Sun altitude
Rises 17:00:05 0° 351° (N) 2,948 6.4 -8.3°
Reaches altitude 10° 17:02:20 10° 352° (N) 2,037 5.6 -8.7°
Maximum altitude 17:06:52 82° 80° (E) 651 3.1 -9.4°
Drops below altitude 10° 17:11:22 10° 169° (S) 2,025 5.8 -10.1°
Sets 17:13:36 0° 170° (S) 2,928 6.6 -10.5°
